Time,TemperatureF,DewpointF,PressureIn,WindDirection,WindDirectionDegrees,WindSpeedMPH,WindSpeedGustMPH,Humidity,HourlyPrecipIn,Conditions,Clouds,dailyrainin,SoftwareType,DateUTC
2013-08-27 00:01:00,58.0,39.0,-100.00,SSE,164,1.0,2.0,50,0.00,,,-99.99,,2013-08-27 07:01:00,
2013-08-27 00:21:00,58.0,36.0,-100.00,SSE,168,0.0,2.0,43,0.00,,,-99.99,,2013-08-27 07:21:00,
2013-08-27 00:42:00,57.0,36.0,-100.00,SSE,168,0.0,2.0,45,0.00,,,-99.99,,2013-08-27 07:42:00,
2013-08-27 00:52:00,57.0,36.0,-100.00,SSE,168,0.0,2.0,45,0.00,,,-99.99,,2013-08-27 07:52:00,
2013-08-27 01:01:00,57.0,36.0,-100.00,SE,145,0.0,2.0,45,0.00,,,-99.99,,2013-08-27 08:01:00,
2013-08-27 01:22:00,57.0,34.0,-100.00,South,171,1.0,2.0,43,0.00,,,-99.99,,2013-08-27 08:22:00,
2013-08-27 01:42:00,57.0,33.0,-100.00,South,171,1.0,2.0,41,0.00,,,-99.99,,2013-08-27 08:42:00,
2013-08-27 01:52:00,55.0,35.0,-100.00,SE,126,0.0,4.0,47,0.00,,,-99.99,,2013-08-27 08:52:00,
2013-08-27 02:01:00,55.0,35.0,-100.00,SE,126,0.0,4.0,47,0.00,,,-99.99,,2013-08-27 09:01:00,
2013-08-27 02:21:00,55.0,39.0,-100.00,SSE,164,1.0,3.0,55,0.00,,,-99.99,,2013-08-27 09:21:00,
2013-08-27 02:43:00,55.0,33.0,-100.00,SSE,150,0.0,2.0,43,0.00,,,-99.99,,2013-08-27 09:43:00,
2013-08-27 02:54:00,55.0,33.0,-100.00,ESE,121,0.0,2.0,43,0.00,,,-99.99,,2013-08-27 09:54:00,
2013-08-27 06:42:00,53.0,35.0,-100.00,SSE,165,1.0,2.0,50,0.00,,,-99.99,,2013-08-27 13:42:00,
2013-08-27 08:58:00,55.0,37.0,-100.00,NNE,24,1.0,4.0,50,0.00,,,-99.99,,2013-08-27 15:58:00,
2013-08-27 09:17:00,56.0,37.0,-100.00,NNE,24,1.0,4.0,48,0.00,,,-99.99,,2013-08-27 16:17:00,
2013-08-27 09:28:00,58.0,37.0,-100.00,NE,37,2.0,6.0,45,0.00,,,-99.99,,2013-08-27 16:28:00,
2013-08-27 09:33:00,60.0,44.0,-100.00,WNW,301,1.0,3.0,55,0.00,,,-99.99,,2013-08-27 16:33:00,
2013-08-27 09:35:00,58.0,37.0,-100.00,NW,322,1.0,5.0,45,0.00,,,-99.99,,2013-08-27 16:35:00,
2013-08-27 09:55:00,59.0,40.0,-100.00,WNW,301,1.0,3.0,48,0.00,,,-99.99,,2013-08-27 16:55:00,
2013-08-27 10:13:00,60.0,44.0,-100.00,WNW,301,1.0,3.0,55,0.00,,,-99.99,,2013-08-27 17:13:00,
2013-08-27 10:23:00,60.0,44.0,-100.00,WNW,301,1.0,3.0,55,0.00,,,-99.99,,2013-08-27 17:23:00,
2013-08-27 11:21:00,62.0,48.0,-100.00,West,271,2.0,10.0,60,0.00,,,-99.99,,2013-08-27 18:21:00,
2013-08-27 11:42:00,64.0,50.0,-100.00,West,261,1.0,8.0,62,0.00,,,-99.99,,2013-08-27 18:42:00,
2013-08-27 13:11:00,70.0,41.0,-100.00,NW,304,1.0,6.0,35,0.00,,,-99.99,,2013-08-27 20:11:00,